START_TIME,STEP,MOV.,H8,t_acc.,H43,t_acc.,M25,t_acc.,H9,t_acc.
1979-07-06 09:00:30.180 ,0,0,4.,12.0,0.,12.0,0.,12.0,0.,12.0
1979-07-06 09:00:42.180 ,0,0,3.,12.0,0.,12.0,0.,12.0,0.,12.0
1979-07-06 09:00:54.180 ,0,0,1.,12.0,0.,12.0,0.,12.0,0.,12.0
1979-07-06 09:01:06.180 ,0,0,2.,12.0,0.,12.0,0.,12.0,0.,12.0
1979-07-06 09:01:18.180 ,0,0,2.,12.0,0.,12.0,0.,12.0,0.,12.0
1979-07-06 09:01:30.180 ,0,0,0.,12.0,0.,12.0,0.,12.0,0.,12.0
1979-07-06 09:01:42.180 ,1,0,4.,12.0,0.,12.0,0.,12.0,0.,12.0
1979-07-06 09:01:54.180 ,1,0,3.,12.0,0.,12.0,0.,12.0,0.,12.0
1979-07-06 09:02:06.180 ,1,0,1.,12.0,0.,12.0,0.,12.0,0.,12.0
1979-07-06 09:02:18.180 ,1,0,0.,12.0,0.,12.0,0.,12.0,0.,12.0
1979-07-06 09:02:30.180 ,2,0,1.,12.0,0.,12.0,0.,12.0,0.,12.0
1979-07-06 09:02:42.180 ,2,0,2.,12.0,0.,12.0,0.,12.0,0.,12.0
1979-07-06 09:02:54.180 ,2,0,0.,12.0,0.,12.0,0.,12.0,0.,12.0
1979-07-06 09:03:06.180 ,2,0,0.,12.0,0.,12.0,0.,12.0,0.,12.0
1979-07-06 09:03:18.180 ,3,0,0.,12.0,0.,12.0,0.,12.0,0.,12.0
1979-07-06 09:03:30.180 ,3,0,0.,12.0,0.,12.0,0.,12.0,0.,12.0
1979-07-06 09:03:42.180 ,3,0,1.,12.0,0.,12.0,0.,12.0,0.,12.0
1979-07-06 09:03:54.180 ,3,0,1.,12.0,0.,12.0,0.,12.0,0.,12.0
1979-07-06 09:04:06.180 ,4,0,2.,12.0,0.,12.0,0.,12.0,0.,12.0
1979-07-06 09:04:18.180 ,4,0,1.,12.0,0.,12.0,0.,12.0,0.,12.0
1979-07-06 09:04:30.180 ,4,0,1.,12.0,0.,12.0,0.,12.0,0.,12.0
1979-07-06 09:04:42.180 ,4,0,2.,12.0,0.,12.0,0.,12.0,0.,12.0
1979-07-06 09:04:54.180 ,5,0,4.,12.0,0.,12.0,0.,12.0,0.,12.0
1979-07-06 09:05:06.180 ,5,0,3.,12.0,0.,12.0,0.,12.0,0.,12.0
1979-07-06 09:05:18.180 ,5,0,4.,12.0,0.,12.0,0.,12.0,0.,12.0
1979-07-06 09:05:30.180 ,5,0,2.,12.0,0.,12.0,0.,12.0,0.,12.0
1979-07-06 09:05:42.180 ,6,0,0.,12.0,0.,12.0,0.,12.0,0.,12.0
1979-07-06 09:05:54.180 ,6,0,1.,12.0,0.,12.0,0.,12.0,0.,12.0
1979-07-06 09:06:06.180 ,6,0,2.,12.0,0.,12.0,0.,12.0,0.,12.0
1979-07-06 09:06:18.180 ,6,0,2.,12.0,0.,12.0,0.,12.0,0.,12.0
1979-07-06 09:06:30.180 ,7,0,2.,12.0,0.,12.0,0.,12.0,0.,12.0
1979-07-06 09:06:42.180 ,7,0,0.,12.0,0.,12.0,0.,12.0,0.,12.0
1979-07-06 09:06:54.180 ,7,0,0.,12.0,0.,12.0,0.,12.0,0.,12.0
1979-07-06 09:07:06.180 ,7,0,0.,12.0,0.,12.0,0.,12.0,0.,12.0
1979-07-06 09:07:18.180 ,3,1,2.,12.0,0.,12.0,0.,12.0,0.,12.0
1979-07-06 09:07:30.180 ,3,1,1.,12.0,0.,12.0,0.,12.0,0.,12.0
1979-07-06 09:07:42.180 ,0,1,0.,12.0,0.,12.0,0.,12.0,0.,12.0
1979-07-06 09:07:54.180 ,0,1,2.,12.0,0.,12.0,0.,12.0,0.,12.0
1979-07-06 09:08:06.180 ,4,1,1.,12.0,0.,12.0,0.,12.0,0.,12.0
1979-07-06 09:08:18.180 ,4,1,2.,12.0,0.,12.0,0.,12.0,0.,12.0
1979-07-06 09:08:30.180 ,7,1,0.,12.0,0.,12.0,0.,12.0,0.,12.0
1979-07-06 09:08:42.180 ,7,1,2.,12.0,0.,12.0,0.,12.0,0.,12.0
1979-07-06 09:08:54.180 ,3,1,0.,12.0,0.,12.0,0.,12.0,0.,12.0
1979-07-06 09:09:06.180 ,3,1,1.,12.0,0.,12.0,0.,12.0,0.,12.0
1979-07-06 09:09:18.180 ,0,1,0.,12.0,0.,12.0,0.,12.0,0.,12.0
1979-07-06 09:09:30.180 ,0,1,2.,12.0,0.,12.0,0.,12.0,0.,12.0
1979-07-06 09:09:42.180 ,4,1,0.,12.0,0.,12.0,0.,12.0,0.,12.0
1979-07-06 09:09:54.180 ,4,1,1.,12.0,0.,12.0,0.,12.0,0.,12.0
1979-07-06 09:10:06.180 ,7,1,1.,12.0,0.,12.0,0.,12.0,0.,12.0
1979-07-06 09:10:18.180 ,7,1,1.,12.0,0.,12.0,0.,12.0,0.,12.0
1979-07-06 09:10:30.180 ,3,1,0.,12.0,0.,12.0,0.,12.0,0.,12.0
1979-07-06 09:10:42.180 ,3,1,1.,12.0,0.,12.0,0.,12.0,0.,12.0
1979-07-06 09:10:54.180 ,0,1,0.,12.0,0.,12.0,0.,12.0,0.,12.0
1979-07-06 09:11:06.180 ,0,1,0.,12.0,0.,12.0,0.,12.0,0.,12.0
1979-07-06 09:11:18.180 ,4,1,1.,12.0,0.,12.0,0.,12.0,0.,12.0
1979-07-06 09:11:30.180 ,4,1,0.,12.0,0.,12.0,0.,12.0,0.,12.0
1979-07-06 09:11:42.180 ,7,1,1.,12.0,0.,12.0,0.,12.0,0.,12.0
1979-07-06 09:11:54.180 ,7,1,1.,12.0,0.,12.0,0.,12.0,0.,12.0
1979-07-06 09:12:06.180 ,3,1,0.,12.0,0.,12.0,0.,12.0,0.,12.0
1979-07-06 09:12:18.180 ,3,1,0.,12.0,0.,12.0,0.,12.0,0.,12.0
1979-07-06 09:12:30.180 ,0,1,1.,12.0,0.,12.0,0.,12.0,0.,12.0
1979-07-06 09:12:42.180 ,0,1,0.,12.0,0.,12.0,0.,12.0,0.,12.0
1979-07-06 09:12:54.180 ,4,1,1.,12.0,0.,12.0,0.,12.0,0.,12.0
1979-07-06 09:13:06.180 ,4,1,1.,12.0,0.,12.0,0.,12.0,0.,12.0
1979-07-06 09:13:18.180 ,7,1,3.,12.0,0.,12.0,0.,12.0,0.,12.0
1979-07-06 09:13:30.180 ,7,1,0.,12.0,1.,12.0,0.,12.0,0.,12.0
1979-07-06 09:13:42.180 ,3,1,1.,12.0,0.,12.0,0.,12.0,0.,12.0
1979-07-06 09:13:54.180 ,3,1,3.,12.0,0.,12.0,0.,12.0,0.,12.0
1979-07-06 09:14:06.180 ,0,1,1.,12.0,0.,12.0,0.,12.0,0.,12.0
1979-07-06 09:14:18.180 ,0,1,0.,12.0,0.,12.0,0.,12.0,0.,12.0
1979-07-06 09:14:30.180 ,4,1,0.,12.0,0.,12.0,0.,12.0,0.,12.0
1979-07-06 09:14:42.180 ,4,1,0.,12.0,0.,12.0,0.,12.0,0.,12.0
1979-07-06 09:14:54.180 ,7,1,4.,12.0,0.,12.0,0.,12.0,0.,12.0
1979-07-06 09:15:06.180 ,7,1,1.,12.0,0.,12.0,0.,12.0,0.,12.0
1979-07-06 09:15:18.180 ,3,1,1.,12.0,0.,12.0,0.,12.0,0.,12.0
1979-07-06 09:15:30.180 ,3,1,0.,12.0,0.,12.0,0.,12.0,0.,12.0
1979-07-06 09:15:42.180 ,0,1,0.,12.0,0.,12.0,0.,12.0,0.,12.0
1979-07-06 09:15:54.180 ,0,1,2.,12.0,0.,12.0,0.,12.0,0.,12.0
1979-07-06 09:16:06.180 ,4,1,0.,12.0,0.,12.0,0.,12.0,0.,12.0
1979-07-06 09:16:18.180 ,4,1,1.,12.0,0.,12.0,0.,12.0,0.,12.0
1979-07-06 09:16:30.180 ,7,1,5.,12.0,0.,12.0,0.,12.0,0.,12.0
1979-07-06 09:16:42.180 ,7,1,0.,12.0,0.,12.0,0.,12.0,0.,12.0
1979-07-06 09:16:54.180 ,3,1,3.,12.0,0.,12.0,0.,12.0,0.,12.0
1979-07-06 09:17:06.180 ,3,1,1.,12.0,0.,12.0,0.,12.0,0.,12.0
1979-07-06 09:17:18.180 ,0,1,3.,12.0,0.,12.0,0.,12.0,0.,12.0
1979-07-06 09:17:30.180 ,0,1,1.,12.0,0.,12.0,0.,12.0,0.,12.0
1979-07-06 09:17:42.180 ,0,0,1.,12.0,0.,12.0,0.,12.0,0.,12.0
1979-07-06 09:17:54.180 ,0,0,1.,12.0,0.,12.0,0.,12.0,0.,12.0
1979-07-06 09:18:06.180 ,0,0,1.,12.0,0.,12.0,0.,12.0,0.,12.0
1979-07-06 09:18:18.180 ,0,0,2.,12.0,0.,12.0,0.,12.0,0.,12.0
1979-07-06 09:18:30.180 ,5,0,1.,12.0,0.,12.0,0.,12.0,0.,12.0
1979-07-06 09:18:42.180 ,5,0,2.,12.0,0.,12.0,0.,12.0,0.,12.0
1979-07-06 09:18:54.180 ,5,0,2.,12.0,0.,12.0,0.,12.0,0.,12.0
1979-07-06 09:19:06.180 ,5,0,0.,12.0,0.,12.0,0.,12.0,0.,12.0
1979-07-06 09:19:18.180 ,4,0,1.,12.0,0.,12.0,0.,12.0,0.,12.0
1979-07-06 09:19:30.180 ,4,0,3.,12.0,0.,12.0,0.,12.0,0.,12.0
1979-07-06 09:19:42.180 ,4,0,0.,12.0,0.,12.0,0.,12.0,0.,12.0
1979-07-06 09:19:54.180 ,4,0,1.,12.0,0.,12.0,0.,12.0,0.,12.0
1979-07-06 09:20:06.180 ,3,0,1.,12.0,0.,12.0,0.,12.0,0.,12.0
1979-07-06 09:20:18.180 ,3,0,0.,12.0,0.,12.0,0.,12.0,0.,12.0
1979-07-06 09:20:30.180 ,3,0,2.,12.0,0.,12.0,0.,12.0,0.,12.0
1979-07-06 09:20:42.180 ,3,0,0.,12.0,0.,12.0,0.,12.0,0.,12.0
1979-07-06 09:20:54.180 ,2,0,0.,12.0,0.,12.0,0.,12.0,0.,12.0
1979-07-06 09:21:06.180 ,2,0,1.,12.0,0.,12.0,0.,12.0,0.,12.0
1979-07-06 09:21:18.180 ,2,0,2.,12.0,0.,12.0,0.,12.0,0.,12.0
1979-07-06 09:21:30.180 ,2,0,3.,12.0,0.,12.0,0.,12.0,0.,12.0
1979-07-06 09:21:42.180 ,1,0,2.,12.0,0.,12.0,0.,12.0,0.,12.0
1979-07-06 09:21:54.180 ,1,0,2.,12.0,0.,12.0,0.,12.0,0.,12.0
1979-07-06 09:22:06.180 ,1,0,0.,12.0,0.,12.0,0.,12.0,0.,12.0
1979-07-06 09:22:18.180 ,1,0,0.,12.0,0.,12.0,0.,12.0,0.,12.0
1979-07-06 09:22:30.180 ,0,0,0.,12.0,0.,12.0,0.,12.0,0.,12.0
1979-07-06 09:22:42.180 ,0,0,3.,12.0,0.,12.0,0.,12.0,0.,12.0
1979-07-06 09:22:54.180 ,0,0,1.,12.0,0.,12.0,0.,12.0,0.,12.0
1979-07-06 09:23:06.180 ,0,0,2.,12.0,0.,12.0,0.,12.0,0.,12.0
1979-07-06 09:23:18.180 ,0,0,1.,12.0,0.,12.0,0.,12.0,0.,12.0
1979-07-06 09:23:30.180 ,0,0,0.,12.0,0.,12.0,0.,12.0,0.,12.0
1979-07-06 09:23:42.180 ,0,0,3.,12.0,0.,12.0,0.,12.0,0.,12.0
1979-07-06 09:23:54.180 ,0,0,1.,12.0,0.,12.0,0.,12.0,0.,12.0
1979-07-06 09:24:06.180 ,1,0,1.,12.0,0.,12.0,0.,12.0,0.,12.0
1979-07-06 09:24:18.180 ,1,0,3.,12.0,0.,12.0,0.,12.0,0.,12.0
1979-07-06 09:24:30.180 ,1,0,1.,12.0,0.,12.0,0.,12.0,0.,12.0
1979-07-06 09:24:42.180 ,1,0,1.,12.0,0.,12.0,0.,12.0,0.,12.0
1979-07-06 09:24:54.180 ,2,0,2.,12.0,0.,12.0,0.,12.0,0.,12.0
1979-07-06 09:25:06.180 ,2,0,2.,12.0,0.,12.0,0.,12.0,0.,12.0
1979-07-06 09:25:18.180 ,2,0,3.,12.0,0.,12.0,0.,12.0,0.,12.0
1979-07-06 09:25:30.180 ,2,0,0.,12.0,0.,12.0,0.,12.0,0.,12.0
1979-07-06 09:25:42.180 ,3,0,0.,12.0,0.,12.0,0.,12.0,0.,12.0
1979-07-06 09:25:54.180 ,3,0,1.,12.0,0.,12.0,0.,12.0,0.,12.0
1979-07-06 09:26:06.180 ,3,0,0.,12.0,0.,12.0,0.,12.0,0.,12.0
1979-07-06 09:26:18.180 ,3,0,0.,12.0,0.,12.0,0.,12.0,0.,12.0
1979-07-06 09:26:30.180 ,4,0,0.,12.0,0.,12.0,0.,12.0,0.,12.0
1979-07-06 09:26:42.180 ,4,0,0.,12.0,0.,12.0,0.,12.0,0.,12.0
1979-07-06 09:26:54.180 ,4,0,1.,12.0,0.,12.0,0.,12.0,0.,12.0
1979-07-06 09:27:06.180 ,4,0,3.,12.0,0.,12.0,0.,12.0,0.,12.0
1979-07-06 09:27:18.180 ,5,0,3.,12.0,0.,12.0,0.,12.0,0.,12.0
1979-07-06 09:27:30.180 ,5,0,4.,12.0,0.,12.0,0.,12.0,0.,12.0
1979-07-06 09:27:42.180 ,5,0,2.,12.0,0.,12.0,0.,12.0,0.,12.0
1979-07-06 09:27:54.180 ,5,0,3.,12.0,0.,12.0,0.,12.0,0.,12.0
1979-07-06 09:28:06.180 ,6,0,2.,12.0,0.,12.0,0.,12.0,0.,12.0
1979-07-06 09:28:18.180 ,6,0,3.,12.0,0.,12.0,0.,12.0,0.,12.0
1979-07-06 09:28:30.180 ,6,0,3.,12.0,0.,12.0,0.,12.0,0.,12.0
1979-07-06 09:28:42.180 ,6,0,7.,12.0,0.,12.0,0.,12.0,0.,12.0
1979-07-06 09:28:54.180 ,7,0,6.,12.0,0.,12.0,0.,12.0,0.,12.0
1979-07-06 09:29:06.180 ,7,0,0.,12.0,0.,12.0,0.,12.0,0.,12.0
1979-07-06 09:29:18.180 ,7,0,0.,12.0,0.,12.0,0.,12.0,0.,12.0
1979-07-06 09:29:30.180 ,7,0,0.,12.0,0.,12.0,0.,12.0,0.,12.0
1979-07-06 09:29:42.180 ,7,0,0.,12.0,0.,12.0,0.,12.0,0.,12.0
1979-07-06 09:29:54.180 ,7,0,0.,12.0,0.,12.0,0.,12.0,0.,12.0
1979-07-06 09:30:06.180 ,7,0,0.,12.0,0.,12.0,0.,12.0,0.,12.0
1979-07-06 09:30:18.180 ,7,0,0.,12.0,0.,12.0,0.,12.0,0.,12.0
1979-07-06 09:30:30.180 ,6,0,0.,12.0,0.,12.0,0.,12.0,0.,12.0
1979-07-06 09:30:42.180 ,6,0,2.,12.0,0.,12.0,0.,12.0,0.,12.0
1979-07-06 09:30:54.180 ,6,0,3.,12.0,0.,12.0,0.,12.0,0.,12.0
1979-07-06 09:31:06.180 ,6,0,6.,12.0,0.,12.0,0.,12.0,0.,12.0
1979-07-06 09:31:18.180 ,5,0,2.,12.0,0.,12.0,0.,12.0,0.,12.0
1979-07-06 09:31:30.180 ,5,0,1.,12.0,0.,12.0,0.,12.0,0.,12.0
1979-07-06 09:31:42.180 ,5,0,2.,12.0,0.,12.0,0.,12.0,0.,12.0
1979-07-06 09:31:54.180 ,5,0,0.,12.0,0.,12.0,0.,12.0,0.,12.0
1979-07-06 09:32:06.180 ,4,0,4.,12.0,0.,12.0,0.,12.0,0.,12.0
1979-07-06 09:32:18.180 ,4,0,1.,12.0,0.,12.0,0.,12.0,0.,12.0
1979-07-06 09:32:30.180 ,4,0,3.,12.0,0.,12.0,0.,12.0,0.,12.0
1979-07-06 09:32:42.180 ,4,0,1.,12.0,0.,12.0,0.,12.0,0.,12.0
1979-07-06 09:32:54.180 ,3,0,1.,12.0,0.,12.0,0.,12.0,0.,12.0
1979-07-06 09:33:06.180 ,3,0,4.,12.0,0.,12.0,0.,12.0,0.,12.0
1979-07-06 09:33:18.180 ,0,0,1.,12.0,0.,12.0,0.,12.0,0.,12.0
1979-07-06 09:33:30.180 ,0,0,1.,12.0,0.,12.0,0.,12.0,0.,12.0
1979-07-06 09:35:00.780 ,0,0,2.,12.0,0.,12.0,0.,12.0,0.,12.0
1979-07-06 09:35:12.780 ,0,0,1.,12.0,0.,12.0,0.,12.0,0.,12.0
1979-07-06 09:35:18.180 ,0,0,0.,12.0,0.,12.0,0.,12.0,0.,12.0
1979-07-06 09:35:30.180 ,0,0,0.,12.0,0.,12.0,0.,12.0,0.,12.0
1979-07-06 09:35:42.180 ,0,0,0.,12.0,0.,12.0,0.,12.0,0.,12.0
1979-07-06 09:35:54.180 ,0,0,4.,12.0,0.,12.0,0.,12.0,0.,12.0
1979-07-06 09:36:06.180 ,0,0,2.,12.0,0.,12.0,0.,12.0,0.,12.0
1979-07-06 09:36:18.180 ,0,0,0.,12.0,0.,12.0,0.,12.0,0.,12.0
1979-07-06 09:36:30.180 ,0,0,1.,12.0,0.,12.0,0.,12.0,0.,12.0
1979-07-06 09:36:42.180 ,0,0,3.,12.0,0.,12.0,0.,12.0,0.,12.0
1979-07-06 09:36:54.180 ,1,0,1.,12.0,0.,12.0,0.,12.0,0.,12.0
1979-07-06 09:37:06.180 ,1,0,1.,12.0,0.,12.0,0.,12.0,0.,12.0
1979-07-06 09:37:18.180 ,1,0,2.,12.0,0.,12.0,0.,12.0,0.,12.0
1979-07-06 09:37:30.180 ,1,0,0.,12.0,0.,12.0,0.,12.0,0.,12.0
1979-07-06 09:37:42.180 ,2,0,1.,12.0,0.,12.0,0.,12.0,0.,12.0
1979-07-06 09:37:54.180 ,2,0,2.,12.0,0.,12.0,0.,12.0,0.,12.0
1979-07-06 09:38:06.180 ,2,0,0.,12.0,0.,12.0,0.,12.0,0.,12.0
1979-07-06 09:38:18.180 ,2,0,1.,12.0,0.,12.0,0.,12.0,0.,12.0
1979-07-06 09:38:30.180 ,3,0,1.,12.0,0.,12.0,0.,12.0,0.,12.0
1979-07-06 09:38:42.180 ,3,0,0.,12.0,0.,12.0,0.,12.0,0.,12.0
1979-07-06 09:38:54.180 ,3,0,0.,12.0,0.,12.0,0.,12.0,0.,12.0
1979-07-06 09:39:06.180 ,3,0,2.,12.0,0.,12.0,0.,12.0,0.,12.0
1979-07-06 09:39:18.180 ,4,0,3.,12.0,0.,12.0,0.,12.0,0.,12.0
1979-07-06 09:39:30.180 ,4,0,2.,12.0,0.,12.0,0.,12.0,0.,12.0
1979-07-06 09:39:42.180 ,4,0,9.,12.0,0.,12.0,0.,12.0,0.,12.0
1979-07-06 09:39:54.180 ,4,0,4.,12.0,0.,12.0,0.,12.0,0.,12.0
1979-07-06 09:40:06.180 ,5,0,1.,12.0,0.,12.0,0.,12.0,0.,12.0
1979-07-06 09:40:18.180 ,5,0,3.,12.0,0.,12.0,0.,12.0,0.,12.0
1979-07-06 09:40:30.180 ,5,0,3.,12.0,0.,12.0,0.,12.0,0.,12.0
1979-07-06 09:40:42.180 ,5,0,1.,12.0,0.,12.0,0.,12.0,0.,12.0
1979-07-06 09:40:54.180 ,6,0,3.,12.0,0.,12.0,0.,12.0,0.,12.0
1979-07-06 09:41:06.180 ,6,0,6.,12.0,0.,12.0,0.,12.0,0.,12.0
1979-07-06 09:41:18.180 ,6,0,0.,12.0,0.,12.0,0.,12.0,0.,12.0
1979-07-06 09:41:30.180 ,6,0,6.,12.0,0.,12.0,0.,12.0,0.,12.0
1979-07-06 09:41:42.180 ,7,0,3.,12.0,0.,12.0,0.,12.0,0.,12.0
1979-07-06 09:41:54.180 ,7,0,0.,12.0,0.,12.0,0.,12.0,0.,12.0
1979-07-06 09:42:06.180 ,7,0,0.,12.0,0.,12.0,0.,12.0,0.,12.0
1979-07-06 09:42:18.180 ,7,0,0.,12.0,0.,12.0,0.,12.0,0.,12.0
1979-07-06 09:42:30.180 ,7,0,0.,12.0,0.,12.0,0.,12.0,0.,12.0
1979-07-06 09:42:42.180 ,7,0,0.,12.0,0.,12.0,0.,12.0,0.,12.0
1979-07-06 09:42:54.180 ,7,0,0.,12.0,0.,12.0,0.,12.0,0.,12.0
1979-07-06 09:43:06.180 ,7,0,0.,12.0,0.,12.0,0.,12.0,0.,12.0
1979-07-06 09:43:18.180 ,6,0,0.,12.0,0.,12.0,0.,12.0,0.,12.0
1979-07-06 09:43:30.180 ,6,0,0.,12.0,0.,12.0,0.,12.0,0.,12.0
1979-07-06 09:43:42.180 ,6,0,3.,12.0,0.,12.0,0.,12.0,0.,12.0
1979-07-06 09:43:54.180 ,6,0,3.,12.0,0.,12.0,0.,12.0,0.,12.0
1979-07-06 09:44:06.180 ,5,0,1.,12.0,0.,12.0,0.,12.0,0.,12.0
1979-07-06 09:44:18.180 ,5,0,6.,12.0,0.,12.0,0.,12.0,0.,12.0
1979-07-06 09:44:30.180 ,5,0,7.,12.0,0.,12.0,0.,12.0,0.,12.0
1979-07-06 09:44:42.180 ,5,0,8.,12.0,0.,12.0,0.,12.0,0.,12.0
1979-07-06 09:44:54.180 ,4,0,4.,12.0,0.,12.0,0.,12.0,0.,12.0
1979-07-06 09:45:06.180 ,4,0,6.,12.0,0.,12.0,0.,12.0,0.,12.0
1979-07-06 09:45:18.180 ,4,0,4.,12.0,0.,12.0,0.,12.0,0.,12.0
1979-07-06 09:45:30.180 ,4,0,5.,12.0,0.,12.0,0.,12.0,0.,12.0
1979-07-06 09:45:42.180 ,3,0,0.,12.0,0.,12.0,0.,12.0,0.,12.0
1979-07-06 09:45:54.180 ,3,0,2.,12.0,0.,12.0,0.,12.0,0.,12.0
1979-07-06 09:46:06.180 ,3,0,4.,12.0,0.,12.0,0.,12.0,0.,12.0
1979-07-06 09:46:18.180 ,3,0,0.,12.0,0.,12.0,0.,12.0,0.,12.0
1979-07-06 09:46:30.180 ,2,0,0.,12.0,0.,12.0,0.,12.0,0.,12.0
1979-07-06 09:46:42.180 ,2,0,0.,12.0,0.,12.0,0.,12.0,0.,12.0
1979-07-06 09:46:54.180 ,2,0,0.,12.0,0.,12.0,0.,12.0,0.,12.0
1979-07-06 09:47:06.180 ,2,0,0.,12.0,0.,12.0,0.,12.0,0.,12.0
1979-07-06 09:47:18.180 ,1,0,0.,12.0,0.,12.0,0.,12.0,0.,12.0
1979-07-06 09:47:30.180 ,1,0,1.,12.0,0.,12.0,0.,12.0,0.,12.0
1979-07-06 09:47:42.180 ,1,0,0.,12.0,0.,12.0,0.,12.0,0.,12.0
1979-07-06 09:47:54.180 ,1,0,1.,12.0,0.,12.0,0.,12.0,0.,12.0
1979-07-06 09:48:06.180 ,0,0,0.,12.0,0.,12.0,0.,12.0,0.,12.0
1979-07-06 09:48:18.180 ,0,0,1.,12.0,0.,12.0,0.,12.0,0.,12.0
1979-07-06 09:48:30.180 ,0,0,0.,12.0,0.,12.0,0.,12.0,0.,12.0
1979-07-06 09:48:42.180 ,0,0,2.,12.0,0.,12.0,0.,12.0,0.,12.0
1979-07-06 09:48:54.180 ,0,0,4.,12.0,0.,12.0,0.,12.0,0.,12.0
1979-07-06 09:49:06.180 ,0,0,1.,12.0,0.,12.0,0.,12.0,0.,12.0
1979-07-06 09:49:18.180 ,0,0,0.,12.0,0.,12.0,0.,12.0,0.,12.0
1979-07-06 09:49:30.180 ,0,0,1.,12.0,0.,12.0,0.,12.0,0.,12.0
1979-07-06 09:49:42.180 ,1,0,0.,12.0,0.,12.0,0.,12.0,0.,12.0
1979-07-06 09:49:54.180 ,1,0,0.,12.0,0.,12.0,0.,12.0,0.,12.0
1979-07-06 09:50:06.180 ,1,0,0.,12.0,0.,12.0,0.,12.0,0.,12.0
1979-07-06 09:50:18.180 ,1,0,1.,12.0,0.,12.0,0.,12.0,0.,12.0
1979-07-06 09:50:30.180 ,2,0,1.,12.0,0.,12.0,0.,12.0,0.,12.0
1979-07-06 09:50:42.180 ,2,0,0.,12.0,0.,12.0,0.,12.0,0.,12.0
1979-07-06 09:50:54.180 ,2,0,0.,12.0,0.,12.0,0.,12.0,0.,12.0
1979-07-06 09:51:06.180 ,2,0,1.,12.0,0.,12.0,0.,12.0,0.,12.0
1979-07-06 09:51:18.180 ,3,0,0.,12.0,0.,12.0,0.,12.0,0.,12.0
1979-07-06 09:51:30.180 ,3,0,1.,12.0,0.,12.0,0.,12.0,0.,12.0
1979-07-06 09:51:42.180 ,3,0,1.,12.0,0.,12.0,0.,12.0,0.,12.0
1979-07-06 09:51:54.180 ,3,0,1.,12.0,0.,12.0,0.,12.0,0.,12.0
1979-07-06 09:52:06.180 ,4,0,0.,12.0,0.,12.0,0.,12.0,0.,12.0
1979-07-06 09:52:18.180 ,4,0,3.,12.0,0.,12.0,0.,12.0,0.,12.0
1979-07-06 09:52:30.180 ,4,0,2.,12.0,0.,12.0,0.,12.0,0.,12.0
1979-07-06 09:52:42.180 ,4,0,1.,12.0,0.,12.0,0.,12.0,0.,12.0
1979-07-06 09:52:54.180 ,5,0,2.,12.0,0.,12.0,0.,12.0,0.,12.0
1979-07-06 09:53:06.180 ,5,0,5.,12.0,0.,12.0,0.,12.0,0.,12.0
1979-07-06 09:53:18.180 ,5,0,8.,12.0,0.,12.0,0.,12.0,0.,12.0
1979-07-06 09:53:30.180 ,5,0,3.,12.0,0.,12.0,0.,12.0,0.,12.0
1979-07-06 09:53:42.180 ,6,0,3.,12.0,0.,12.0,0.,12.0,0.,12.0
1979-07-06 09:53:54.180 ,6,0,3.,12.0,0.,12.0,0.,12.0,0.,12.0
1979-07-06 09:54:06.180 ,6,0,6.,12.0,0.,12.0,0.,12.0,0.,12.0
1979-07-06 09:54:18.180 ,6,0,4.,12.0,0.,12.0,0.,12.0,0.,12.0
1979-07-06 09:54:30.180 ,7,0,1.,12.0,0.,12.0,0.,12.0,0.,12.0
1979-07-06 09:54:42.180 ,7,0,0.,12.0,0.,12.0,0.,12.0,0.,12.0
1979-07-06 09:54:54.180 ,7,0,0.,12.0,0.,12.0,0.,12.0,0.,12.0
1979-07-06 09:55:06.180 ,7,0,0.,12.0,0.,12.0,0.,12.0,0.,12.0
1979-07-06 09:55:18.180 ,3,1,2.,12.0,0.,12.0,0.,12.0,0.,12.0
1979-07-06 09:55:30.180 ,3,1,3.,12.0,0.,12.0,0.,12.0,0.,12.0
1979-07-06 09:55:42.180 ,0,1,1.,12.0,0.,12.0,0.,12.0,0.,12.0
1979-07-06 09:55:54.180 ,0,1,2.,12.0,0.,12.0,0.,12.0,0.,12.0
1979-07-06 09:56:06.180 ,4,1,6.,12.0,0.,12.0,0.,12.0,0.,12.0
1979-07-06 09:56:18.180 ,4,1,3.,12.0,0.,12.0,0.,12.0,0.,12.0
1979-07-06 09:56:30.180 ,7,1,4.,12.0,0.,12.0,0.,12.0,0.,12.0
1979-07-06 09:56:42.180 ,7,1,0.,12.0,0.,12.0,0.,12.0,0.,12.0
1979-07-06 09:56:54.180 ,3,1,0.,12.0,0.,12.0,0.,12.0,0.,12.0
1979-07-06 09:57:06.180 ,3,1,3.,12.0,0.,12.0,0.,12.0,0.,12.0
1979-07-06 09:57:18.180 ,0,1,0.,12.0,0.,12.0,0.,12.0,0.,12.0
1979-07-06 09:57:30.180 ,0,1,2.,12.0,0.,12.0,0.,12.0,0.,12.0
1979-07-06 09:57:42.180 ,4,1,1.,12.0,0.,12.0,0.,12.0,0.,12.0
1979-07-06 09:57:54.180 ,4,1,1.,12.0,0.,12.0,0.,12.0,0.,12.0
1979-07-06 09:58:06.180 ,7,1,5.,12.0,0.,12.0,0.,12.0,0.,12.0
1979-07-06 09:58:18.180 ,7,1,0.,12.0,0.,12.0,0.,12.0,0.,12.0
1979-07-06 09:58:30.180 ,3,1,4.,12.0,0.,12.0,0.,12.0,0.,12.0
1979-07-06 09:58:42.180 ,3,1,7.,12.0,0.,12.0,0.,12.0,0.,12.0
1979-07-06 09:58:54.180 ,0,1,3.,12.0,0.,12.0,0.,12.0,0.,12.0
1979-07-06 09:59:06.180 ,0,1,5.,12.0,0.,12.0,0.,12.0,0.,12.0
1979-07-06 09:59:18.180 ,4,1,3.,12.0,0.,12.0,0.,12.0,0.,12.0
1979-07-06 09:59:30.180 ,4,1,3.,12.0,0.,12.0,0.,12.0,0.,12.0
1979-07-06 09:59:42.180 ,7,1,3.,12.0,0.,12.0,0.,12.0,0.,12.0
1979-07-06 09:59:54.180 ,7,1,4.,12.0,0.,12.0,0.,12.0,0.,12.0
1979-07-06 10:00:06.180 ,3,1,5.,12.0,0.,12.0,0.,12.0,0.,12.0
1979-07-06 10:00:18.180 ,3,1,6.,12.0,0.,12.0,0.,12.0,0.,12.0
1979-07-06 10:00:30.180 ,0,1,5.,12.0,0.,12.0,0.,12.0,0.,12.0
1979-07-06 10:00:42.180 ,0,1,4.,12.0,0.,12.0,0.,12.0,0.,12.0
1979-07-06 10:00:54.180 ,4,1,0.,12.0,0.,12.0,0.,12.0,0.,12.0
1979-07-06 10:01:06.180 ,4,1,4.,12.0,0.,12.0,0.,12.0,0.,12.0
1979-07-06 10:01:18.180 ,7,1,9.,12.0,0.,12.0,0.,12.0,0.,12.0
1979-07-06 10:01:30.180 ,7,1,1.,12.0,0.,12.0,0.,12.0,0.,12.0
1979-07-06 10:01:42.180 ,3,1,2.,12.0,0.,12.0,0.,12.0,0.,12.0
1979-07-06 10:01:54.180 ,3,1,5.,12.0,0.,12.0,0.,12.0,0.,12.0
1979-07-06 10:02:06.180 ,0,1,4.,12.0,0.,12.0,0.,12.0,0.,12.0
1979-07-06 10:02:18.180 ,0,1,1.,12.0,0.,12.0,0.,12.0,0.,12.0
1979-07-06 10:02:30.180 ,4,1,1.,12.0,0.,12.0,0.,12.0,0.,12.0
1979-07-06 10:02:42.180 ,4,1,4.,12.0,0.,12.0,0.,12.0,0.,12.0
1979-07-06 10:02:54.180 ,7,1,4.,12.0,0.,12.0,0.,12.0,0.,12.0
1979-07-06 10:03:06.180 ,7,1,3.,12.0,0.,12.0,0.,12.0,0.,12.0
1979-07-06 10:03:18.180 ,3,1,4.,12.0,0.,12.0,0.,12.0,0.,12.0
1979-07-06 10:03:30.180 ,3,1,3.,12.0,0.,12.0,0.,12.0,0.,12.0
1979-07-06 10:03:42.180 ,0,1,5.,12.0,0.,12.0,0.,12.0,0.,12.0
1979-07-06 10:03:54.180 ,0,1,2.,12.0,0.,12.0,0.,12.0,0.,12.0
1979-07-06 10:04:06.180 ,4,1,1.,12.0,0.,12.0,0.,12.0,0.,12.0
1979-07-06 10:04:18.180 ,4,1,3.,12.0,0.,12.0,0.,12.0,0.,12.0
1979-07-06 10:04:30.180 ,7,1,7.,12.0,0.,12.0,0.,12.0,0.,12.0
1979-07-06 10:04:42.180 ,7,1,3.,12.0,0.,12.0,0.,12.0,0.,12.0
1979-07-06 10:04:54.180 ,3,1,1.,12.0,0.,12.0,0.,12.0,0.,12.0
1979-07-06 10:05:06.180 ,3,1,7.,12.0,0.,12.0,0.,12.0,0.,12.0
1979-07-06 10:05:18.180 ,0,1,1.,12.0,0.,12.0,0.,12.0,0.,12.0
1979-07-06 10:05:30.180 ,0,1,5.,12.0,0.,12.0,0.,12.0,0.,12.0
1979-07-06 10:05:42.180 ,0,0,4.,12.0,0.,12.0,0.,12.0,0.,12.0
1979-07-06 10:05:54.180 ,0,0,4.,12.0,0.,12.0,0.,12.0,0.,12.0
1979-07-06 10:06:06.180 ,0,0,7.,12.0,0.,12.0,0.,12.0,0.,12.0
1979-07-06 10:06:18.180 ,0,0,1.,12.0,0.,12.0,0.,12.0,0.,12.0
1979-07-06 10:06:30.180 ,5,0,2.,12.0,0.,12.0,0.,12.0,0.,12.0
1979-07-06 10:06:42.180 ,5,0,6.,12.0,0.,12.0,0.,12.0,0.,12.0
1979-07-06 10:06:54.180 ,5,0,7.,12.0,0.,12.0,0.,12.0,0.,12.0
1979-07-06 10:07:06.180 ,5,0,6.,12.0,0.,12.0,0.,12.0,0.,12.0
1979-07-06 10:07:18.180 ,4,0,7.,12.0,0.,12.0,0.,12.0,0.,12.0
1979-07-06 10:07:30.180 ,4,0,4.,12.0,0.,12.0,0.,12.0,0.,12.0
1979-07-06 10:07:42.180 ,4,0,6.,12.0,0.,12.0,0.,12.0,0.,12.0
1979-07-06 10:07:54.180 ,4,0,2.,12.0,0.,12.0,0.,12.0,0.,12.0
1979-07-06 10:08:06.180 ,3,0,10.,12.0,0.,12.0,0.,12.0,0.,12.0
1979-07-06 10:08:18.180 ,3,0,2.,12.0,0.,12.0,0.,12.0,0.,12.0
1979-07-06 10:08:30.180 ,3,0,6.,12.0,0.,12.0,0.,12.0,0.,12.0
1979-07-06 10:08:42.180 ,3,0,2.,12.0,0.,12.0,0.,12.0,0.,12.0
1979-07-06 10:08:54.180 ,2,0,3.,12.0,0.,12.0,0.,12.0,0.,12.0
1979-07-06 10:09:06.180 ,2,0,2.,12.0,0.,12.0,0.,12.0,0.,12.0
1979-07-06 10:09:18.180 ,2,0,4.,12.0,0.,12.0,0.,12.0,0.,12.0
1979-07-06 10:09:30.180 ,2,0,1.,12.0,0.,12.0,0.,12.0,0.,12.0
1979-07-06 10:09:42.180 ,1,0,1.,12.0,0.,12.0,0.,12.0,0.,12.0
1979-07-06 10:09:54.180 ,1,0,1.,12.0,0.,12.0,0.,12.0,0.,12.0
1979-07-06 10:10:06.180 ,1,0,1.,12.0,0.,12.0,0.,12.0,0.,12.0
1979-07-06 10:10:18.180 ,1,0,1.,12.0,0.,12.0,0.,12.0,0.,12.0
1979-07-06 10:10:30.180 ,0,0,2.,12.0,0.,12.0,0.,12.0,0.,12.0
1979-07-06 10:10:42.180 ,0,0,6.,12.0,0.,12.0,0.,12.0,0.,12.0
1979-07-06 10:10:54.180 ,0,0,2.,12.0,0.,12.0,0.,12.0,0.,12.0
1979-07-06 10:11:06.180 ,0,0,0.,12.0,0.,12.0,0.,12.0,0.,12.0
1979-07-06 10:11:18.180 ,0,0,4.,12.0,0.,12.0,0.,12.0,0.,12.0
1979-07-06 10:11:30.180 ,0,0,2.,12.0,0.,12.0,0.,12.0,0.,12.0
1979-07-06 10:11:42.180 ,0,0,2.,12.0,0.,12.0,0.,12.0,0.,12.0
1979-07-06 10:11:54.180 ,0,0,3.,12.0,0.,12.0,0.,12.0,0.,12.0
1979-07-06 10:12:06.180 ,1,0,1.,12.0,0.,12.0,0.,12.0,0.,12.0
1979-07-06 10:12:18.180 ,1,0,4.,12.0,0.,12.0,0.,12.0,0.,12.0
1979-07-06 10:12:30.180 ,1,0,3.,12.0,0.,12.0,0.,12.0,0.,12.0
1979-07-06 10:12:42.180 ,1,0,4.,12.0,0.,12.0,0.,12.0,0.,12.0
1979-07-06 10:12:54.180 ,2,0,1.,12.0,0.,12.0,0.,12.0,0.,12.0
1979-07-06 10:13:06.180 ,2,0,4.,12.0,0.,12.0,0.,12.0,0.,12.0
1979-07-06 10:13:18.180 ,2,0,0.,12.0,0.,12.0,0.,12.0,0.,12.0
1979-07-06 10:13:30.180 ,2,0,6.,12.0,0.,12.0,0.,12.0,0.,12.0
1979-07-06 10:13:42.180 ,3,0,1.,12.0,0.,12.0,0.,12.0,0.,12.0
1979-07-06 10:13:54.180 ,3,0,2.,12.0,0.,12.0,0.,12.0,0.,12.0
1979-07-06 10:14:06.180 ,3,0,2.,12.0,0.,12.0,0.,12.0,0.,12.0
1979-07-06 10:14:18.180 ,3,0,4.,12.0,0.,12.0,0.,12.0,0.,12.0
1979-07-06 10:14:30.180 ,4,0,10.,12.0,0.,12.0,0.,12.0,0.,12.0
1979-07-06 10:14:42.180 ,4,0,2.,12.0,0.,12.0,0.,12.0,0.,12.0
1979-07-06 10:14:54.180 ,4,0,2.,12.0,0.,12.0,0.,12.0,0.,12.0
1979-07-06 10:15:06.180 ,4,0,4.,12.0,0.,12.0,0.,12.0,0.,12.0
1979-07-06 10:15:18.180 ,5,0,7.,12.0,0.,12.0,0.,12.0,0.,12.0
1979-07-06 10:15:30.180 ,5,0,10.,12.0,0.,12.0,0.,12.0,0.,12.0
1979-07-06 10:15:42.180 ,5,0,7.,12.0,0.,12.0,0.,12.0,0.,12.0
1979-07-06 10:15:54.180 ,5,0,4.,12.0,0.,12.0,0.,12.0,0.,12.0
1979-07-06 10:16:06.180 ,6,0,3.,12.0,0.,12.0,0.,12.0,0.,12.0
1979-07-06 10:16:18.180 ,6,0,5.,12.0,0.,12.0,0.,12.0,0.,12.0
1979-07-06 10:16:30.180 ,6,0,0.,12.0,0.,12.0,0.,12.0,0.,12.0
1979-07-06 10:16:42.180 ,6,0,6.,12.0,0.,12.0,0.,12.0,0.,12.0
1979-07-06 10:16:54.180 ,7,0,1.,12.0,0.,12.0,0.,12.0,0.,12.0
1979-07-06 10:17:06.180 ,7,0,0.,12.0,0.,12.0,0.,12.0,0.,12.0
1979-07-06 10:17:18.180 ,7,0,0.,12.0,0.,12.0,0.,12.0,0.,12.0
1979-07-06 10:17:30.180 ,7,0,0.,12.0,0.,12.0,0.,12.0,0.,12.0
1979-07-06 10:17:42.180 ,7,0,0.,12.0,0.,12.0,0.,12.0,0.,12.0
1979-07-06 10:17:54.180 ,7,0,0.,12.0,0.,12.0,0.,12.0,0.,12.0
1979-07-06 10:18:06.180 ,7,0,0.,12.0,0.,12.0,0.,12.0,0.,12.0
1979-07-06 10:18:18.180 ,7,0,0.,12.0,0.,12.0,0.,12.0,0.,12.0
1979-07-06 10:18:30.180 ,6,0,0.,12.0,0.,12.0,0.,12.0,0.,12.0
1979-07-06 10:18:42.180 ,6,0,5.,12.0,0.,12.0,0.,12.0,0.,12.0